Location: Croisilles
(50.1998°N, 2.8793°E)
Time: 13:31:01
(UTC+00:00)

Cosmos 1818 - Pass Details

Date: 21 January 2021
Orbit: 773 x 800 km, 65.0° (Epoch: 26 February)

Event Time Altitude Azimuth Distance (km) Brightness Sun altitude
Rises 17:53:38 0° 198° (SSW) 3,265 7.2 -14.1°
Reaches altitude 10° 17:56:06 10° 192° (SSW) 2,345 6.3 -14.4°
Maximum altitude 18:01:14 46° 120° (ESE) 1,058 3.9 -15.2°
Enters shadow 18:04:16 23° 60° (ENE) 1,637 4.6 -15.7°
